Location: S�tio Afonso Gruber
(26.1760°S, 49.5250°W)
Time: 08:10:06
(UTC+00:00)

Cosmos 1844 Rocket - Pass Details

Date: 06 October 2020
Orbit: 823 x 846 km, 71.0° (Epoch: 22 October)

Event Time Altitude Azimuth Distance (km) Brightness Sun altitude
Exits shadow 06:51:03 25° 14° (NNE) 1,642 4.1 -27.1°
Maximum altitude 06:54:03 48° 75° (ENE) 1,092 3.5 -26.5°
Drops below altitude 10° 06:59:29 10° 148° (SSE) 2,474 5.8 -25.3°
Sets 07:02:01 0° 153° (SSE) 3,412 6.5 -24.8°
